Location: Unspecified
(50.7693°N, 0.0000°E)
Time: 18:07:58
(UTC+00:00)

A-11 Canister half - Pass Details

Date: 23 June 2019
Orbit: 1526 x 1683 km, 47.3° (Epoch: 22 August)

Event Time Altitude Azimuth Distance (km) Brightness Sun altitude
Rises 10:40:07 0° 287° (WNW) 4,684 11.3 58.4°
Reaches altitude 10° 10:43:33 10° 278° (W) 3,697 10.9 58.7°
Maximum altitude 10:51:22 32° 220° (SW) 2,398 10.6 59.4°
Drops below altitude 10° 10:59:17 10° 162° (SSE) 3,727 11.7 60.1°
Sets 11:02:46 0° 153° (SSE) 4,727 12.0 60.3°
